Tracking 31027 objects as of 19-Jul-2025
HD Live streaming from Space Station
objects crossing your sky now

FLOCK 4Y 34

Track FLOCK 4Y 34 now!
10-day predictions
FLOCK 4Y 34 is classified as:


NORAD ID: 55082
Int'l Code: 2023-001CB
Perigee: 311.3 km
Apogee: 322.4 km
Inclination: 97.4 °
Period: 90.7 minutes
Semi major axis: 6687 km
RCS: Unknown
Launch date: January 3, 2023
Source: United States (US)
Launch site: AIR FORCE EASTERN TEST RANGE (AFETR)
Your satellite tracking list
No more satellites can be added for tracking (max 5)
FOX-1B (RADFXSAT AO-91)
FOX-1D (AO-92)
FOX-1A (AO-85)
FUNCUBE 1 (AO-73)
SPACE STATION
Track 5 satellite(s)




NASA's NSSDC Master Catalog

Two Line Element Set (TLE):
1 55082U 23001CB  25199.19755101  .00467185  00000-0  16968-2 0  9994
2 55082  97.3561 275.1458 0008265 209.9393 150.1406 15.87359310141983
Source of the keplerian elements: AFSPC